• în România
  • Lista ţărilor
  • Pe 7 zile
  • Temperatura apei
  • Hartă satelitară
  • Meteo pe hartă
  • Widget-uri
  • user-avatar
    Intrare

    Meteo pe oră la Baranovichi

    Astăzi, 19 Iunie, Marţi

    Timp Temperatura Precipitaţii Vânt Presiune Umiditate
    00:00 +17°C° 0,2 mm 0 m/s 747 mmHg 87%
    01:00 +16°C° 0,2 mm 0 m/s 747 mmHg 88%
    02:00 +18°C° 0 mm 1 m/s 747 mmHg 89%
    03:00 +18°C° 0,4 mm 1 m/s 747 mmHg 90%
    04:00 +18°C° 0,4 mm 1 m/s 747 mmHg 91%
    05:00 +18°C° 0,4 mm 1 m/s 747 mmHg 92%
    06:00 +20°C° 0 mm 1 m/s 747 mmHg 88%
    07:00 +21°C° 0 mm 1 m/s 747 mmHg 84%
    08:00 +23°C° 0 mm 1 m/s 747 mmHg 80%
    09:00 +24°C° 0,6 mm 1 m/s 747 mmHg 77%
    10:00 +25°C° 0,6 mm 2 m/s 747 mmHg 74%
    11:00 +26°C° 0,6 mm 3 m/s 747 mmHg 70%
    12:00 +26°C° 0,1 mm 3 m/s 747 mmHg 67%
    13:00 +27°C° 0,1 mm 4 m/s 746 mmHg 63%
    14:00 +27°C° 0,1 mm 4 m/s 746 mmHg 59%
    15:00 +27°C° 0,1 mm 4 m/s 746 mmHg 60%
    16:00 +26°C° 0,1 mm 4 m/s 746 mmHg 61%
    17:00 +26°C° 0,1 mm 4 m/s 746 mmHg 62%
    18:00 +25°C° 0 mm 4 m/s 746 mmHg 68%
    19:00 +22°C° 0 mm 4 m/s 746 mmHg 73%
    20:00 +20°C° 0 mm 3 m/s 746 mmHg 78%
    21:00 +19°C° 0 mm 3 m/s 747 mmHg 83%
    22:00 +18°C° 0 mm 3 m/s 747 mmHg 87%
    23:00 +17°C° 0 mm 2 m/s 748 mmHg 92%

    Mâine, 20 Iunie, Miercuri

    Timp Temperatura Precipitaţii Vânt Presiune Umiditate
    00:00 +16°C° 0 mm 2 m/s 748 mmHg 93%
    01:00 +15°C° 0 mm 2 m/s 748 mmHg 94%
    02:00 +15°C° 0 mm 2 m/s 749 mmHg 95%
    03:00 +14°C° 0 mm 2 m/s 749 mmHg 95%
    04:00 +14°C° 0 mm 2 m/s 749 mmHg 95%
    05:00 +14°C° 0 mm 2 m/s 749 mmHg 95%
    06:00 +16°C° 0 mm 3 m/s 749 mmHg 87%
    07:00 +17°C° 0 mm 3 m/s 750 mmHg 80%
    08:00 +19°C° 0 mm 4 m/s 750 mmHg 73%
    09:00 +20°C° 0 mm 4 m/s 750 mmHg 70%
    10:00 +21°C° 0 mm 4 m/s 750 mmHg 67%
    11:00 +22°C° 0 mm 5 m/s 750 mmHg 63%
    12:00 +23°C° 0 mm 5 m/s 749 mmHg 60%
    13:00 +23°C° 0 mm 5 m/s 749 mmHg 57%
    14:00 +25°C° 0 mm 5 m/s 749 mmHg 54%
    15:00 +25°C° 0 mm 4 m/s 749 mmHg 55%
    16:00 +25°C° 0 mm 4 m/s 749 mmHg 55%
    17:00 +25°C° 0 mm 4 m/s 748 mmHg 56%
    18:00 +22°C° 0 mm 3 m/s 748 mmHg 62%
    19:00 +21°C° 0 mm 2 m/s 748 mmHg 67%
    20:00 +19°C° 0 mm 2 m/s 748 mmHg 73%
    21:00 +19°C° 0 mm 1 m/s 748 mmHg 75%
    22:00 +16°C° 0 mm 1 m/s 748 mmHg 78%
    23:00 +15°C° 0 mm 1 m/s 748 mmHg 80%

    Poimâine, 21 Iunie, Joi

    Timp Temperatura Precipitaţii Vânt Presiune Umiditate
    00:00 +15°C° 0 mm 1 m/s 748 mmHg 80%
    01:00 +14°C° 0 mm 1 m/s 748 mmHg 81%
    02:00 +14°C° 0 mm 1 m/s 748 mmHg 81%
    03:00 +14°C° 0 mm 2 m/s 748 mmHg 81%
    04:00 +14°C° 0 mm 2 m/s 748 mmHg 81%
    05:00 +14°C° 0 mm 2 m/s 748 mmHg 81%
    06:00 +16°C° 0 mm 2 m/s 748 mmHg 76%
    07:00 +18°C° 0 mm 2 m/s 747 mmHg 71%
    08:00 +21°C° 0 mm 2 m/s 747 mmHg 65%
    09:00 +23°C° 0 mm 2 m/s 747 mmHg 62%
    10:00 +25°C° 0 mm 3 m/s 746 mmHg 58%
    11:00 +26°C° 0 mm 3 m/s 746 mmHg 54%
    12:00 +27°C° 0 mm 3 m/s 745 mmHg 53%
    13:00 +28°C° 0 mm 4 m/s 745 mmHg 52%
    14:00 +28°C° 0 mm 4 m/s 744 mmHg 51%
    15:00 +28°C° 0 mm 4 m/s 743 mmHg 53%
    16:00 +28°C° 0 mm 3 m/s 743 mmHg 55%
    17:00 +28°C° 0 mm 3 m/s 742 mmHg 57%
    18:00 +27°C° 0 mm 3 m/s 741 mmHg 63%
    19:00 +25°C° 0 mm 3 m/s 741 mmHg 68%
    20:00 +24°C° 0 mm 3 m/s 740 mmHg 74%
    21:00 +22°C° 0,3 mm 3 m/s 740 mmHg 79%
    22:00 +21°C° 0,3 mm 3 m/s 739 mmHg 84%
    23:00 +20°C° 0,3 mm 4 m/s 738 mmHg 88%

    22 Iunie, Vineri

    Timp Temperatura Precipitaţii Vânt Presiune Umiditate
    00:00 +20°C° 0,5 mm 4 m/s 738 mmHg 90%
    01:00 +20°C° 0,5 mm 4 m/s 738 mmHg 92%
    02:00 +20°C° 0,5 mm 4 m/s 737 mmHg 94%
    03:00 +19°C° 0,9 mm 5 m/s 738 mmHg 94%
    04:00 +17°C° 0,9 mm 5 m/s 738 mmHg 94%
    05:00 +16°C° 0,9 mm 6 m/s 738 mmHg 94%
    06:00 +15°C° 0,3 mm 6 m/s 738 mmHg 93%
    07:00 +13°C° 0,3 mm 5 m/s 739 mmHg 91%
    08:00 +12°C° 0,3 mm 5 m/s 739 mmHg 90%
    09:00 +13°C° 0,1 mm 5 m/s 740 mmHg 86%
    10:00 +13°C° 0,1 mm 4 m/s 740 mmHg 83%
    11:00 +13°C° 0,1 mm 4 m/s 741 mmHg 80%
    12:00 +15°C° 0 mm 4 m/s 741 mmHg 72%
    13:00 +16°C° 0 mm 5 m/s 741 mmHg 65%
    14:00 +17°C° 0 mm 5 m/s 741 mmHg 57%
    15:00 +18°C° 0 mm 4 m/s 741 mmHg 59%
    16:00 +18°C° 0 mm 4 m/s 741 mmHg 60%
    17:00 +18°C° 0 mm 3 m/s 741 mmHg 61%
    18:00 +17°C° 0 mm 3 m/s 741 mmHg 62%
    19:00 +16°C° 0 mm 3 m/s 741 mmHg 64%
    20:00 +14°C° 0 mm 3 m/s 741 mmHg 66%
    21:00 +13°C° 0 mm 3 m/s 741 mmHg 65%
    22:00 +12°C° 0 mm 3 m/s 741 mmHg 65%
    23:00 +12°C° 0 mm 3 m/s 741 mmHg 65%

    23 Iunie, Sâmbătă

    Timp Temperatura Precipitaţii Vânt Presiune Umiditate
    00:00 +11°C° 0 mm 3 m/s 741 mmHg 68%
    01:00 +10°C° 0 mm 3 m/s 741 mmHg 71%
    02:00 +9°C° 0 mm 3 m/s 741 mmHg 74%
    03:00 +9°C° 0 mm 3 m/s 741 mmHg 77%
    04:00 +9°C° 0 mm 3 m/s 741 mmHg 81%
    05:00 +8°C° 0 mm 3 m/s 741 mmHg 84%
    06:00 +10°C° 0 mm 4 m/s 741 mmHg 81%
    07:00 +11°C° 0 mm 4 m/s 741 mmHg 79%
    08:00 +13°C° 0 mm 5 m/s 742 mmHg 76%
    09:00 +14°C° 0 mm 5 m/s 742 mmHg 71%
    10:00 +15°C° 0 mm 5 m/s 742 mmHg 65%
    11:00 +17°C° 0 mm 5 m/s 742 mmHg 60%
    12:00 +17°C° 0 mm 6 m/s 742 mmHg 56%
    13:00 +19°C° 0 mm 6 m/s 742 mmHg 53%
    14:00 +20°C° 0 mm 6 m/s 742 mmHg 50%
    15:00 +20°C° 0,1 mm 6 m/s 742 mmHg 53%
    16:00 +19°C° 0,1 mm 5 m/s 742 mmHg 57%
    17:00 +19°C° 0,1 mm 5 m/s 742 mmHg 60%
    18:00 +18°C° 0,4 mm 4 m/s 742 mmHg 69%
    19:00 +16°C° 0,4 mm 3 m/s 743 mmHg 77%
    20:00 +14°C° 0,4 mm 3 m/s 743 mmHg 86%
    21:00 +14°C° 0,1 mm 2 m/s 743 mmHg 89%
    22:00 +13°C° 0,1 mm 2 m/s 744 mmHg 91%
    23:00 +12°C° 0,1 mm 2 m/s 744 mmHg 94%

    24 Iunie, Duminică

    Timp Temperatura Precipitaţii Vânt Presiune Umiditate
    00:00 +10°C° 0 mm 2 m/s 744 mmHg 95%
    01:00 +10°C° 0 mm 2 m/s 745 mmHg 96%
    02:00 +9°C° 0 mm 2 m/s 745 mmHg 97%
    03:00 +9°C° 0 mm 2 m/s 745 mmHg 97%
    04:00 +10°C° 0 mm 1 m/s 745 mmHg 97%
    05:00 +10°C° 0 mm 1 m/s 746 mmHg 97%
    06:00 +12°C° 0 mm 1 m/s 746 mmHg 91%
    07:00 +14°C° 0 mm 1 m/s 746 mmHg 86%
    08:00 +16°C° 0 mm 2 m/s 746 mmHg 80%
    09:00 +17°C° 0,2 mm 2 m/s 746 mmHg 75%
    10:00 +17°C° 0,2 mm 2 m/s 746 mmHg 70%
    11:00 +18°C° 0,2 mm 2 m/s 747 mmHg 65%
    12:00 +19°C° 0,2 mm 3 m/s 747 mmHg 61%
    13:00 +20°C° 0,2 mm 3 m/s 746 mmHg 57%
    14:00 +21°C° 0,2 mm 3 m/s 746 mmHg 54%
    15:00 +21°C° 0,1 mm 3 m/s 746 mmHg 54%
    16:00 +21°C° 0,1 mm 3 m/s 746 mmHg 55%
    17:00 +21°C° 0,1 mm 3 m/s 746 mmHg 56%
    18:00 +19°C° 0,1 mm 2 m/s 747 mmHg 63%
    19:00 +17°C° 0,1 mm 2 m/s 747 mmHg 70%
    20:00 +16°C° 0,1 mm 1 m/s 747 mmHg 78%
    21:00 +15°C° 0 mm 1 m/s 747 mmHg 81%
    22:00 +13°C° 0 mm 1 m/s 747 mmHg 84%
    23:00 +12°C° 0 mm 1 m/s 747 mmHg 87%
    Arată mai mult